Terminal Aerodrome Forecast
Issued by NWS Dodge City, KS

Home | Current Version | Previous Version | Graphics & Text | Print | Product List | Glossary Off
Versions: 1 2 3 4 5 6 7 8 9 10 11 12 13 14 15 16 17

000
FTUS43 KDDC 141000 AAA
TAFDDC
TAF AMD
KDDC 141000Z 1410/1506 35007KT P6SM OVC120
     FM141400 32007KT P6SM BKN080
     FM141700 33014KT P6SM BKN060
     FM150000 34011KT P6SM SCT080=

USA.gov is the U.S. government's official web portal to all federal, state and local government web resources and services.